[[[{"header":{"parameterUnit":"kt","parameterCategory":2,"dx":1,"dy":1,"la1":30.253999710083008,"la2":30.299108505249023,"lo1":-89.0895004272461,"lo2":-89.04439544677734,"nx":28,"ny":28,"refTime":"2022-10-21T21:00:00:Z","depth":0,"parameterNumber":1,"parameterNumberName":"U-component_of_WINDS"},"data":[-2.2888,-2.2966,-2.3,-2.3105,-2.3153,-2.3231,-2.327,-2.3324,-2.3376,-2.3473,-2.3535,-2.3579,-2.3645,-2.3728,-2.3798,-2.3816,-2.3844,-2.3845,-2.3867,-2.3827,-2.3823,-2.3821,-2.3804,-2.3851,-2.3851,-2.3904,-2.3904,-2.3904,-2.2854,-2.2902,-2.2968,-2.3055,-2.3111,-2.313,-2.3201,-2.3247,-2.3317,-2.3382,-2.3445,-2.3534,-2.3609,-2.3677,-2.3755,-2.3793,-2.3807,-2.3812,-2.381,-2.3821,-2.3779,-2.3761,-2.3799,-2.3799,-2.3799,-2.3799,-2.3799,-2.3799,-2.28,-2.2846,-2.2919,-2.2991,-2.3044,-2.3102,-2.3152,-2.3204,-2.3269,-2.3355,-2.3385,-2.3464,-2.3537,-2.365,-2.3696,-2.376,-2.3762,-2.3778,-2.3783,-2.3786,-2.3785,-2.3704,-2.3775,-2.3775,-2.3775,-2.3775,-2.3775,0,-2.2773,-2.2799,-2.2864,-2.294,-2.2995,-2.3057,-2.3121,-2.3152,-2.3221,-2.3272,-2.3349,-2.34,-2.35,-2.3578,-2.366,-2.3706,-2.3733,-2.374,-2.3751,-2.3738,-2.3715,-2.3729,-2.3659,-2.3738,-2.3737,-2.3737,-2.3737,-2.3737,-2.2722,-2.2771,-2.2865,-2.2907,-2.295,-2.3016,-2.3063,-2.312,-2.3168,-2.3255,-2.3293,-2.3371,-2.3436,-2.3555,-2.3618,-2.3694,-2.3708,-2.3733,-2.3719,-2.3704,-2.3709,-2.3706,-2.3711,-2.3735,-2.3736,-2.3736,-2.3736,0,-2.2691,-2.2748,-2.2836,-2.2925,-2.2949,-2.2997,-2.3074,-2.3122,-2.3168,-2.3241,-2.3262,-2.3335,-2.3411,-2.347,-2.3569,-2.3597,-2.3679,-2.369,-2.3654,-2.366,-2.3689,-2.3686,-2.3775,-2.3789,-2.3741,-2.3741,-2.3742,0,-2.2671,-2.2733,-2.2816,-2.2864,-2.2935,-2.2991,-2.306,-2.3107,-2.3171,-2.3229,-2.3268,-2.3322,-2.3389,-2.3452,-2.3494,-2.3572,-2.359,-2.3617,-2.3628,-2.3614,-2.3611,-2.3641,-2.3639,-2.365,-2.3649,-2.3649,-2.3648,0,-2.2616,-2.2734,-2.2812,-2.2848,-2.295,-2.2986,-2.303,-2.3102,-2.3148,-2.3217,-2.3248,-2.3324,-2.3366,-2.3425,-2.3479,-2.3467,-2.3575,-2.357,-2.3602,-2.3601,-2.3624,-2.3622,-2.3685,-2.3648,-2.3648,-2.3647,-2.3647,0,-2.261,-2.2678,-2.2782,-2.2868,-2.2897,-2.2949,-2.3028,-2.3085,-2.3159,-2.3189,-2.3244,-2.3278,-2.335,-2.3341,-2.3442,-2.3411,-2.345,-2.3483,-2.3486,-2.3497,-2.3485,-2.3513,-2.3566,-2.3575,-2.3505,-2.3504,-2.3503,0,-2.2532,-2.2653,-2.2702,-2.28,-2.2864,-2.2905,-2.2963,-2.3027,-2.3072,-2.3133,-2.3183,-2.3253,-2.3259,-2.3289,-2.3331,-2.3386,-2.3426,-2.3382,-2.3471,-2.3474,-2.345,-2.35,-2.3494,-2.3548,-2.3489,-2.3491,-2.3492,0,-2.2479,-2.2603,-2.2617,-2.2661,-2.2755,-2.2809,-2.2876,-2.2957,-2.2995,-2.3063,-2.3121,-2.3221,-2.323,-2.3279,-2.3315,-2.3356,-2.3401,-2.336,-2.3363,-2.3365,-2.3487,-2.348,-2.3489,-2.3416,-2.3418,-2.3419,-2.348,0,-2.2457,-2.2525,-2.2566,-2.2662,-2.2713,-2.2778,-2.2841,-2.2886,-2.2916,-2.2962,-2.3048,-2.3118,-2.3202,-2.3228,-2.3257,-2.3331,-2.3328,-2.3336,-2.3333,-2.3364,-2.3386,-2.3395,-2.3295,-2.3295,-2.3295,-2.3295,0,0,-2.2368,-2.2468,-2.2521,-2.2588,-2.2634,-2.2676,-2.2739,-2.279,-2.289,-2.2922,-2.292,-2.307,-2.3127,-2.3226,-2.324,-2.3274,-2.3294,-2.328,-2.3349,-2.3354,-2.336,-2.3382,-2.339,-2.3296,-2.3296,-2.3296,-2.3296,0,-2.2374,-2.2429,-2.2492,-2.2546,-2.2628,-2.2675,-2.2689,-2.2779,-2.2812,-2.2897,-2.293,-2.299,-2.3109,-2.3165,-2.3208,-2.327,-2.3292,-2.329,-2.3302,-2.3349,-2.3354,-2.3359,-2.3381,-2.3388,-2.3297,-2.3297,-2.3297,0,-2.2333,-2.2399,-2.2435,-2.2543,-2.2598,-2.2663,-2.2674,-2.2743,-2.2792,-2.2835,-2.2919,-2.2966,-2.3046,-2.3131,-2.3171,-2.3171,-2.3288,-2.3262,-2.3263,-2.3269,-2.3317,-2.3323,-2.3329,-2.3255,-2.3254,-2.3254,0,0,-2.2329,-2.2393,-2.2482,-2.2549,-2.2581,-2.2651,-2.2692,-2.2726,-2.2796,-2.2824,-2.2886,-2.2953,-2.3023,-2.3068,-2.3137,-2.3221,-2.3243,-2.3254,-2.3256,-2.3258,-2.3264,-2.3313,-2.3319,-2.3252,-2.3252,-2.3252,0,0,-2.2328,-2.2433,-2.245,-2.2536,-2.2601,-2.2694,-2.2733,-2.2756,-2.2825,-2.2825,-2.2886,-2.2906,-2.2987,-2.3032,-2.3004,-2.3137,-2.3132,-2.314,-2.3105,-2.3108,-2.311,-2.3098,-2.3026,0,0,0,0,0,-2.2366,-2.242,-2.2435,-2.2458,-2.2596,-2.2686,-2.2704,-2.2755,-2.275,-2.2779,-2.2834,-2.2856,-2.303,-2.3006,-2.3029,-2.306,-2.3232,-2.3236,-2.3239,-2.3214,-2.3217,-2.3219,0,0,0,0,0,0,-2.2376,-2.2405,-2.2433,-2.2527,-2.2558,-2.2684,-2.2687,-2.2703,-2.2748,-2.2751,-2.2845,-2.2859,-2.2905,-2.2998,-2.3018,-2.3046,-2.3019,-2.3234,-2.3237,-2.3239,-2.3215,-2.3217,-2.3219,0,0,0,0,0,-2.2384,-2.2408,-2.2614,-2.2527,-2.2554,-2.2635,-2.2685,-2.2699,-2.2735,-2.282,-2.2835,-2.2769,-2.2904,-2.2925,-2.301,-2.3036,-2.3006,-2.3013,-2.3236,-2.3238,-2.324,-2.3216,0,0,0,0,0,0,-2.239,-2.242,-2.262,-2.2631,-2.251,-2.2629,-2.2649,-2.2695,-2.2802,-2.2817,-2.2748,-2.2749,-2.2905,-2.292,-2.2936,-2.3029,-2.2995,-2.3002,-2.3007,-2.3237,-2.3239,-2.3241,0,0,0,0,0,0,-2.2408,-2.2429,-2.2626,-2.2602,-2.261,-2.2623,-2.2641,-2.2721,-2.2803,-2.2724,-2.2728,-2.2747,-2.2882,-2.2918,-2.293,-2.3052,-2.2986,-2.2993,-2.2998,-2.3001,-2.3239,-2.324,0,0,0,0,0,0,-2.2418,-2.2435,-2.26,-2.2606,-2.2613,-2.2732,-2.2695,-2.2833,-2.2782,-2.2718,-2.2779,-2.2777,-2.2878,-2.2892,-2.2925,-2.3043,-2.305,-2.2986,-2.2991,-2.2995,-2.2997,0,0,0,0,0,0,0,-2.2426,-2.2295,-2.256,-2.2609,-2.2615,-2.2725,-2.2728,-2.2731,-2.2781,-2.278,-2.2779,-2.2778,-2.2946,-2.2954,-2.2961,-2.3035,0,0,-2.2986,-2.2989,0,0,0,0,0,0,0,0,-2.2289,-2.2293,-2.256,-2.2562,-2.2564,-2.2726,-2.2728,-2.273,-2.2781,-2.278,-2.2779,-2.2778,-2.2948,-2.2954,-2.2961,0,0,0,0,0,0,0,0,0,0,0,0,0,0,0,-2.256,-2.2562,0,-2.2726,-2.2728,-2.273,-2.2781,-2.278,-2.2779,-2.2779,-2.295,-2.2955,-2.296,0,0,0,0,0,0,0,0,0,0,0,0,0,0,0,0,0,0,0,0,0,0,0,0,0,0,0,0,0,0,0,0,0,0,0,0,0,0,0,0,0,0,0,0,0,0,0,0,0,0,0,0,0,0,0,0,0,0,0,0,0,0,0,0,0,0,0,0,0]}],[{"header":{"parameterUnit":"kt","parameterCategory":2,"dx":1,"dy":1,"la1":30.253999710083008,"la2":30.299108505249023,"lo1":-89.0895004272461,"lo2":-89.04439544677734,"nx":28,"ny":28,"refTime":"2022-10-21T21:00:00:Z","depth":0,"parameterNumber":2,"parameterNumberName":"V-component_of_WINDS"},"data":[5.4274,5.431,5.4274,5.43,5.4272,5.4283,5.4276,5.4263,5.4243,5.4254,5.4254,5.4222,5.4187,5.4179,5.4177,5.4162,5.4162,5.4204,5.4178,5.4026,5.4002,5.3979,5.3965,5.4206,5.4207,5.4339,5.434,5.4341,5.4172,5.4144,5.4148,5.4124,5.4127,5.4066,5.4044,5.4049,5.4061,5.4037,5.4034,5.404,5.404,5.3989,5.3983,5.4001,5.3969,5.4001,5.3995,5.399,5.3828,5.3813,5.4027,5.4027,5.4027,5.4027,5.4027,5.4027,5.3976,5.4,5.3962,5.3964,5.3943,5.3929,5.3944,5.3902,5.3904,5.3891,5.3846,5.3858,5.3826,5.3798,5.3779,5.3788,5.3744,5.3766,5.377,5.3775,5.3786,5.3596,5.3786,5.3785,5.3784,5.3784,5.3783,0,5.3819,5.3786,5.3783,5.3772,5.3771,5.3758,5.3739,5.3748,5.3662,5.3667,5.3671,5.3667,5.366,5.3659,5.3643,5.3616,5.3547,5.3538,5.3552,5.3569,5.359,5.3576,5.3308,5.353,5.3528,5.3526,5.3525,5.3524,5.3614,5.3646,5.3587,5.3591,5.3569,5.3578,5.3574,5.3495,5.3495,5.346,5.3485,5.3484,5.3476,5.349,5.3436,5.343,5.3394,5.3483,5.3392,5.3412,5.3389,5.3386,5.3388,5.3499,5.3502,5.3505,5.3507,0,5.3502,5.3435,5.3472,5.3408,5.3393,5.3432,5.3377,5.3397,5.3351,5.3373,5.3373,5.3299,5.3304,5.3234,5.3225,5.3188,5.3252,5.322,5.3263,5.325,5.332,5.3312,5.3563,5.359,5.3345,5.3347,5.3349,0,5.3297,5.3342,5.324,5.3264,5.3312,5.3227,5.3278,5.3241,5.3208,5.3224,5.3135,5.3152,5.3058,5.3066,5.3011,5.3051,5.305,5.3022,5.3005,5.3026,5.3029,5.3018,5.3004,5.2973,5.2971,5.297,5.2969,0,5.3122,5.312,5.316,5.3148,5.3081,5.3103,5.3076,5.3036,5.3033,5.3018,5.3014,5.3004,5.2996,5.299,5.2918,5.2859,5.2966,5.2869,5.2936,5.2938,5.2956,5.2955,5.3202,5.2968,5.2967,5.2967,5.2966,0,5.2942,5.2927,5.2996,5.2937,5.2939,5.2966,5.2946,5.2953,5.2917,5.2883,5.287,5.2798,5.2828,5.2737,5.2776,5.2719,5.2718,5.2694,5.2697,5.2688,5.2586,5.2727,5.2975,5.2995,5.2692,5.269,5.2688,0,5.276,5.2809,5.2733,5.28,5.2811,5.2706,5.2735,5.2704,5.266,5.2664,5.2616,5.2621,5.2538,5.2528,5.2558,5.2506,5.2582,5.2495,5.2499,5.25,5.2506,5.2735,5.2785,5.293,5.2657,5.2661,5.2663,0,5.2606,5.252,5.2537,5.2517,5.2461,5.247,5.2504,5.2488,5.2494,5.247,5.2494,5.2502,5.2437,5.2423,5.2361,5.2396,5.2529,5.2321,5.2318,5.2357,5.2637,5.2685,5.271,5.2481,5.2484,5.2487,5.2639,0,5.2343,5.2357,5.2401,5.236,5.2355,5.2392,5.2309,5.2316,5.2256,5.2205,5.2242,5.2194,5.2177,5.2186,5.2127,5.223,5.2199,5.213,5.2028,5.2182,5.2229,5.2249,5.1965,5.1962,5.1959,5.1956,0,0,5.2181,5.2197,5.2108,5.2134,5.2124,5.2008,5.2054,5.2031,5.1986,5.1981,5.1926,5.1926,5.1889,5.194,5.1981,5.1976,5.1985,5.1933,5.2111,5.2128,5.2144,5.2197,5.2219,5.1951,5.195,5.1949,5.1948,0,5.2064,5.2029,5.2075,5.2046,5.1999,5.1942,5.1954,5.1886,5.1854,5.1888,5.1788,5.18,5.1801,5.1773,5.1759,5.1928,5.1849,5.193,5.2046,5.2085,5.2106,5.2125,5.2181,5.2203,5.1941,5.1942,5.1942,0,5.1894,5.1843,5.1856,5.1825,5.1792,5.1806,5.1681,5.1701,5.171,5.1577,5.161,5.1572,5.1528,5.1588,5.1611,5.156,5.173,5.1661,5.1677,5.1675,5.1708,5.1734,5.1758,5.1452,5.145,5.1449,0,0,5.1804,5.1815,5.1731,5.1793,5.178,5.1693,5.1691,5.1628,5.159,5.1575,5.1521,5.1488,5.1487,5.1488,5.1483,5.1561,5.1542,5.1604,5.1627,5.1647,5.1656,5.1694,5.172,5.1444,5.1444,5.1443,0,0,5.1759,5.1663,5.1607,5.1668,5.1636,5.1556,5.1597,5.1526,5.1511,5.1496,5.139,5.1376,5.143,5.1395,5.1337,5.1444,5.1346,5.1358,5.1463,5.1491,5.1513,5.1517,5.1197,0,0,0,0,0,5.1593,5.1676,5.1626,5.1623,5.158,5.1584,5.1578,5.1491,5.1424,5.1459,5.1403,5.1319,5.1342,5.1287,5.1286,5.135,5.1377,5.1389,5.14,5.1553,5.1583,5.1608,0,0,0,0,0,0,5.1591,5.1588,5.1623,5.1548,5.1537,5.158,5.1447,5.1426,5.1418,5.1401,5.1333,5.1317,5.1243,5.1282,5.1282,5.1344,5.1196,5.1382,5.1392,5.1401,5.1563,5.1588,5.1609,0,0,0,0,0,5.1589,5.1586,5.154,5.1546,5.1537,5.1442,5.1443,5.1424,5.1416,5.1328,5.1309,5.1351,5.1247,5.1241,5.1281,5.1346,5.1195,5.1196,5.1388,5.1396,5.1403,5.1575,0,0,0,0,0,0,5.1587,5.1569,5.1536,5.153,5.1506,5.1437,5.1423,5.1423,5.1341,5.1324,5.134,5.1328,5.1251,5.1246,5.1242,5.1352,5.1194,5.1195,5.1195,5.1394,5.1401,5.1406,0,0,0,0,0,0,5.157,5.1565,5.1533,5.1488,5.1475,5.1434,5.1422,5.1443,5.1341,5.1358,5.1345,5.1336,5.1256,5.125,5.1246,5.1282,5.1194,5.1194,5.1195,5.1195,5.1399,5.1404,0,0,0,0,0,0,5.1566,5.1562,5.1488,5.1479,5.1468,5.1395,5.1451,5.1412,5.1303,5.1363,5.1291,5.1286,5.1263,5.1257,5.125,5.1288,5.1284,5.1194,5.1194,5.1194,5.1195,0,0,0,0,0,0,0,5.1563,5.1612,5.1572,5.1473,5.1463,5.1475,5.1473,5.1471,5.1302,5.1297,5.1292,5.1288,5.1191,5.1192,5.1192,5.1293,0,0,5.1194,5.1194,0,0,0,0,0,0,0,0,5.1612,5.1612,5.1571,5.157,5.1569,5.1474,5.1473,5.1472,5.1301,5.1297,5.1294,5.129,5.1191,5.1192,5.1192,0,0,0,0,0,0,0,0,0,0,0,0,0,0,0,5.1571,5.157,0,5.1474,5.1473,5.1472,5.1301,5.1298,5.1294,5.1291,5.1191,5.1192,5.1192,0,0,0,0,0,0,0,0,0,0,0,0,0,0,0,0,0,0,0,0,0,0,0,0,0,0,0,0,0,0,0,0,0,0,0,0,0,0,0,0,0,0,0,0,0,0,0,0,0,0,0,0,0,0,0,0,0,0,0,0,0,0,0,0,0,0,0,0,0]}]]]